Lær å fly hos oss!

Oslo Flyveklubb har i mange år utdannet flygere til privatflygersetifikat PPL(A). Skolen har godkjenning for å drive utdanning til teoriundervisning til PPL(A), privatflygersertifikat PPL (A) og mørkeflyging.

Gi bort en flytur i gave

På en introduksjonstur vil kandidaten være med på forberedelser til, og gjennomføring av en flytur på en times varighet med en av våre instruktører.

Hvor vi holder til?

Flyplassen ligger i Lillestrøm 10 minutter med tog fra Oslo. Følg storgata fra Lillestrøms sentrum så vill man se plassen på venstre side.
6 days ago
KLUBBTUR TIL TYSKLAND 2017

Klubbtur til Tyskland i 2017 - fem karer - to flymaskiner

LIKE
LOVE
HAHA
WOW
SAD
ANGRY
Metar/TAF Gardermoen:

ENGM 220250Z 02003KT CAVOK 01/M04 Q1016

TAF ENGM 212300Z 2200/2224 36005KT CAVOK BECMG 2208/2210 18010KT BECMG 2220/2222 VRB05KT